Tracking 28052 objects as of 21-Sep-2023
HD Live streaming from Space Station
objects crossing your sky now

CHINASAT 20

Track CHINASAT 20 now!
CHINASAT 20 is classified as:


NORAD ID: 28082
Int'l Code: 2003-052A
Perigee: 36,095.4 km
Apogee: 36,150.7 km
Inclination: 8.3 °
Period: 1,453.0 minutes
Semi major axis: 42494 km
RCS: 12.5893 m2 (large)
Launch date: November 14, 2003
Source: People's Republic of China (PRC)
Launch site: Xichang Space Center, China (XSC)

Dedicated military communications satellite.
Your satellite tracking list
Your tracking list is empty




NASA's NSSDC Master Catalog

Two Line Element Set (TLE):
1 28082U 03052A   23263.48198073 -.00000010  00000-0  00000-0 0  9998
2 28082   8.2505  58.4879 0006508  87.3548 292.6766  0.99108359 72479
Source of the keplerian elements: AFSPC